Torna al catalogo

STARLINK-3640

AttivoComunicazioniVLEO
NORAD 51988·PAYLOAD·🇺🇸 United States

Lanciato Mar 9, 2022 da Cape Canaveral Space Force Station

Loading…

Prossimi Passaggi (prossime 24 ore)

TLE

AggiornatoSource: CelesTrak SupGP

Epoca: Sep 14, 2026, 20:49 UTC

1 51988C 22025AJ  26257.86784722  .00050674  00000+0  16298-2 0  2574
2 51988  53.1566 258.0862 0001279  91.3621 184.3016 15.31671220    13

Traccia STARLINK-3640 in tempo reale con AllMySat

Download on the App Store